ONEWEB-0121 (47267 NORAD) Tracking and Keplerian Element Data

This shows tracking and keplerian element data for the satellite.

Feedback or suggestion? Click here.




ElementValue
Catalog47267
NameONEWEB-0121
Epoch Orbit174
Epoch Day60.91667824
Epoch Year2021
RAAN15.9271
Inclination87.5549
Eccentricity0.0014218
Argument of Perigee39.1414
Mean Anonmoly215.2742
Mean Motion13.93854226
Decay Rate-0.01239194
L11 47267U 20100K 21060.91667824 -.01239194 00000-0 -99868+0 0 9991
L22 47267 87.5549 15.9271 0014218 39.1414 215.2742 13.93854226 1747

Live tracking and technical data element details for ONEWEB-0121 (NORAD 47267). ONEWEB-0121 can be tracked NOW for your location showing map with azimuth and elevation plus other details from your city location.

Track the satellite on the map from your city or location and see movement details for azimuth, elevation, latitude, longitude, range, height, and movement on the map or in text.







IsCatalogInMostPopularTable: catalog: 47267, numindb: 22
Update: records affected: 1



GetName: 47267 ONEWEB-0121

Hit Count: updated at: Tue, 02 Mar 2021 14:36:58 GMT